Content
SEND FEEDBACK

Daily
Averages
Monthly
Summary
United Kingdom

CARDIFF, WALES


Home > Europe > United Kingdom > Wales
Elevation: 220 feet     Latitude: 51 24N     Longitude: 003 21W

WEATHER
 
SELECT A DAY
Number of Records: 274,855;   Date Range: 7/1/96 - 7/24/14
 
SHARE

PRINT THIS DATA

[ ← Previous Day ]
WEATHER ALMANAC - OCTOBER 5, 2013
[ Next Day → ]
[ °C ]   °F
Weather ElementAverageHighLow
Temperature58.3 °F62.6 °F (11:50 am)51.8 °F (11:20 pm)
Dewpoint53.8 °F57.2 °F (12:50 am)50 °F (4:50 pm)
Humidity85.9 %100 % (4:20 am)63 % (4:50 pm)
Barometer30.14 in30.27 in (9:20 pm)29.98 in (12:50 am)
Wind Speed7.8 mph10.4 mph (7:20 am)
Weather ElementAverage
Visibility6.2 mi
Wind DirectionWNW (293.6 °)

Weather ElementTotal
Precipitation---
Heating Degree Days7.8 (Base 65)
Growing Degree Days7.2 (Base 50)
Averaged from 47 records on October 5, 2013
WEATHER CONDITIONS BREAKOUT
WIND DIRECTION BREAKOUT
WEATHER BY HOUR - OCTOBER 5, 2013
[ °C ]   °F
Local TimeTemperatureDewpointHumidityBarometerVisibilityWind DirectionWind SpeedGust SpeedPrecipitationEventsConditions
12:50 AM59.0 °F57.2 °F94 %29.98 in6.2 miNW (310°)6.9 mphMostly Cloudy
1:20 AM59.0 °F57.2 °F94 %29.98 in6.2 miWest (280°)6.9 mphMostly Cloudy
1:50 AM59.0 °F57.2 °F94 %29.98 in6.2 miWest (280°)8.1 mphLight Drizzle
2:20 AM59.0 °F57.2 °F94 %29.98 in5.0 miWest (270°)6.9 mphMostly Cloudy
2:50 AM59.0 °F57.2 °F94 %29.98 in6.2 miWNW (290°)5.8 mphRainLight Rain
3:20 AM59.0 °F57.2 °F94 %30.01 in6.2 miWNW (300°)6.9 mphMostly Cloudy
3:50 AM59.0 °F57.2 °F94 %30.01 in6.2 miWest (280°)6.9 mphScattered Clouds
4:20 AM57.2 °F57.2 °F100 %30.01 in6.2 miWNW (300°)6.9 mphPartly Cloudy
4:50 AM57.2 °F57.2 °F100 %30.04 inWNW (300°)6.9 mphClear
5:20 AM57.2 °F57.2 °F100 %30.04 inWNW (300°)8.1 mphClear
5:50 AM57.2 °F55.4 °F94 %30.04 in6.2 miWNW (300°)8.1 mphPartly Cloudy
6:20 AM57.2 °F55.4 °F94 %30.06 inNW (310°)8.1 mphClear
6:50 AM57.2 °F55.4 °F94 %30.06 in6.2 miNW (310°)9.2 mphMostly Cloudy
7:20 AM57.2 °F55.4 °F94 %30.06 in6.2 miWNW (290°)10.4 mphMostly Cloudy
7:50 AM57.2 °F55.4 °F94 %30.09 in6.2 miNW (310°)9.2 mphScattered Clouds
8:20 AM55.4 °F53.6 °F94 %30.09 in6.2 miNW (310°)8.1 mphPartly Cloudy
8:50 AM55.4 °F55.4 °F100 %30.12 in6.2 miNW (320°)6.9 mphPartly Cloudy
9:20 AM57.2 °F55.4 °F94 %30.12 in6.2 miNW (320°)6.9 mphPartly Cloudy
9:50 AM59.0 °F53.6 °F82 %30.12 in6.2 miWNW (300°)5.8 mphPartly Cloudy
10:20 AM59.0 °F53.6 °F82 %30.15 in6.2 miWNW (290°)9.2 mphPartly Cloudy
10:50 AM60.8 °F53.6 °F77 %30.15 in6.2 miWNW (290°)10.4 mphPartly Cloudy
11:20 AM60.8 °F53.6 °F77 %30.15 in6.2 miWNW (300°)9.2 mphPartly Cloudy
11:50 AM62.6 °F51.8 °F68 %30.18 in6.2 miNW (310°)10.4 mphPartly Cloudy
12:20 PM60.8 °F51.8 °F72 %30.18 in6.2 miWNW (300°)9.2 mphPartly Cloudy
12:50 PM62.6 °F51.8 °F68 %30.18 in6.2 miWNW (290°)9.2 mphPartly Cloudy
1:20 PM62.6 °F53.6 °F72 %30.18 in6.2 miWNW (290°)8.1 mphScattered Clouds
1:50 PM62.6 °F51.8 °F68 %30.18 in6.2 miWest (270°)8.1 mphScattered Clouds
2:20 PM62.6 °F53.6 °F72 %30.18 in6.2 miWSW (250°)10.4 mphScattered Clouds
2:50 PM60.8 °F51.8 °F72 %30.18 in6.2 miWest (260°)10.4 mphScattered Clouds
3:20 PM62.6 °F51.8 °F68 %30.21 in6.2 miWest (270°)10.4 mphPartly Cloudy
3:50 PM62.6 °F53.6 °F72 %30.21 in6.2 miWest (270°)10.4 mphScattered Clouds
4:20 PM60.8 °F51.8 °F72 %30.21 in6.2 miWest (270°)9.2 mphPartly Cloudy
4:50 PM62.6 °F50.0 °F63 %30.21 in6.2 miWest (270°)9.2 mphPartly Cloudy
5:20 PM60.8 °F53.6 °F77 %30.21 in6.2 miWest (270°)8.1 mphPartly Cloudy
5:50 PM60.8 °F53.6 °F77 %30.21 in6.2 miWest (280°)9.2 mphPartly Cloudy
6:20 PM59.0 °F51.8 °F77 %30.21 in6.2 miWest (280°)6.9 mphPartly Cloudy
6:50 PM57.2 °F51.8 °F82 %30.24 in6.2 miWNW (290°)6.9 mphPartly Cloudy
7:20 PM55.4 °F51.8 °F88 %30.24 in6.2 miWNW (290°)5.8 mphScattered Clouds
7:50 PM55.4 °F51.8 °F88 %30.24 in6.2 miWNW (300°)8.1 mphScattered Clouds
8:20 PM55.4 °F51.8 °F88 %30.24 in6.2 miWNW (300°)5.8 mphScattered Clouds
8:50 PM55.4 °F51.8 °F88 %30.24 in6.2 miNW (310°)5.8 mphPartly Cloudy
9:20 PM53.6 °F51.8 °F94 %30.27 in6.2 miNW (310°)5.8 mphPartly Cloudy
9:50 PM53.6 °F51.8 °F94 %30.27 in6.2 miNW (310°)5.8 mphPartly Cloudy
10:20 PM53.6 °F51.8 °F94 %30.27 inNW (310°)5.8 mphClear
10:50 PM53.6 °F51.8 °F94 %30.27 inNW (320°)5.8 mphClear
11:20 PM51.8 °F50.0 °F94 %30.27 inNW (310°)4.6 mphClear
11:50 PM51.8 °F51.8 °F100 %30.27 inNW (310°)5.8 mphClear
Hourly data recorded from EGFF, located miles away from Cardiff, Wales







STORIES FROM OUR PARTNERS